Location: Sternwarte_Laufen
(47.9344°N, 12.9346°E)
Time: 08:01:49
(UTC+02:00)

Tiros 1 - All Passes

Search period start: 08 June 2026 00:00
Search period end: 18 June 2026 00:00
Orbit: 617 x 649 km, 48.4° (Epoch: 7 June)

Date Brightness Start Highest point End Pass type
(mag) Time Alt. Az. Time Alt. Az. Time Alt. Az.
8 Jun - 15:27:15 10° SSW 15:31:31 35° SSE 15:35:48 10° E daylight
8 Jun - 17:08:23 10° WSW 17:13:08 83° SSE 17:17:52 10° E daylight
8 Jun - 18:50:22 10° W 18:55:07 87° N 18:59:50 10° E daylight
8 Jun - 20:32:21 10° W 20:36:54 48° SSW 20:41:23 10° SE daylight
8 Jun - 22:15:33 10° WSW 22:17:59 14° SW 22:20:25 10° SSW visible
9 Jun - 14:08:34 10° S 14:11:36 17° SE 14:14:39 10° E daylight
9 Jun - 15:48:11 10° SW 15:52:48 55° SSE 15:57:25 10° E daylight
9 Jun - 17:29:53 10° W 17:34:39 85° N 17:39:22 10° E daylight
9 Jun - 19:11:52 10° W 19:16:37 78° SSW 19:21:18 10° ESE daylight
9 Jun - 20:54:02 10° W 20:58:08 30° SW 21:02:11 10° SSE daylight
10 Jun - 14:28:36 10° SSW 14:32:41 30° SE 14:36:47 10° E daylight
10 Jun - 16:09:28 10° WSW 16:14:12 77° SSE 16:18:56 10° E daylight
10 Jun - 17:51:25 10° W 17:56:11 85° N 18:00:53 10° E daylight
10 Jun - 19:33:23 10° W 19:38:01 55° SSW 19:42:35 10° SE daylight
10 Jun - 21:16:09 10° W 21:19:13 17° SW 21:22:14 10° S daylight
11 Jun - 13:10:24 10° SSE 13:12:49 14° SE 13:15:15 10° ESE daylight
11 Jun - 14:49:23 10° SW 14:53:55 48° SSE 14:58:28 10° E daylight
11 Jun - 16:30:56 10° W 16:35:42 88° N 16:40:25 10° E daylight
11 Jun - 18:12:55 10° W 18:17:41 84° S 18:22:23 10° ESE daylight
11 Jun - 19:55:00 10° W 19:59:17 35° SSW 20:03:32 10° SSE daylight
12 Jun - 13:30:00 10° SSW 13:33:51 25° SE 13:37:43 10° E daylight
12 Jun - 15:10:34 10° WSW 15:15:17 70° SSE 15:19:59 10° ENE daylight
12 Jun - 16:52:27 10° W 16:57:13 84° N 17:01:57 10° E daylight
12 Jun - 18:34:26 10° WNW 18:39:06 63° SSW 18:43:44 10° ESE daylight
12 Jun - 20:16:55 10° W 20:20:24 21° SW 20:23:53 10° S daylight
13 Jun - 12:12:39 10° SSE 12:14:02 11° SE 12:15:27 10° ESE daylight
13 Jun - 13:50:36 10° SW 13:55:01 41° SSE 13:59:29 10° E daylight
13 Jun - 15:31:58 10° WSW 15:36:44 89° SSE 15:41:29 10° E daylight
13 Jun - 17:13:58 10° W 17:18:43 88° SSW 17:23:27 10° ESE daylight
13 Jun - 18:55:59 10° W 19:00:25 41° SSW 19:04:49 10° SE daylight
13 Jun - 20:40:10 10° WSW 20:41:23 11° SW 20:42:35 10° SSW daylight
14 Jun - 12:31:29 10° S 12:35:01 21° SE 12:38:34 10° E daylight
14 Jun - 14:11:40 10° WSW 14:16:20 63° SSE 14:21:02 10° ENE daylight
14 Jun - 15:53:29 10° W 15:58:15 84° N 16:02:59 10° E daylight
14 Jun - 17:35:28 10° WNW 17:40:11 70° SSW 17:44:52 10° ESE daylight
14 Jun - 19:17:45 10° W 19:21:35 25° SW 19:25:23 10° SSE daylight
15 Jun - 12:51:52 10° SW 12:56:09 36° SSE 13:00:28 10° E daylight
15 Jun - 14:33:02 10° WSW 14:37:46 84° SSE 14:42:31 10° E daylight
15 Jun - 16:15:00 10° W 16:19:45 88° N 16:24:30 10° E daylight
15 Jun - 17:56:59 10° W 18:01:31 47° SSW 18:06:02 10° SE daylight
15 Jun - 19:40:16 10° WSW 19:42:36 14° SW 19:44:56 10° SSW daylight
16 Jun - 11:33:06 10° S 11:36:12 18° SE 11:39:20 10° E daylight
16 Jun - 13:12:48 10° SW 13:17:25 56° SSE 13:22:04 10° E daylight
16 Jun - 14:54:30 10° W 14:59:16 85° N 15:04:01 10° E daylight
16 Jun - 16:36:30 10° W 16:41:14 77° SSW 16:45:56 10° ESE daylight
16 Jun - 18:18:39 10° W 18:22:44 29° SW 18:26:47 10° SSE daylight
17 Jun - 11:53:10 10° SSW 11:57:16 30° SE 12:01:25 10° E daylight
17 Jun - 13:34:05 10° WSW 13:38:49 78° SSE 13:43:33 10° E daylight
17 Jun - 15:16:02 10° W 15:20:47 85° N 15:25:32 10° E daylight
17 Jun - 16:57:59 10° W 17:02:37 54° SSW 17:07:13 10° SE daylight
17 Jun - 18:40:49 10° W 18:43:48 17° SW 18:46:47 10° S daylight
